Monterey, Australia

8:57 PM AEDT on February 22, 2018 (GMT +1100)
Monterey

Weather History for 94767 - January, 2014

Change the Weather History Date:

Wednesday, January 22, 2014

  Actual Average Record
Temperature  
Mean Temperature 70 °F -  
Max Temperature 72 °F 80 °F - ()
Min Temperature 67 °F 66 °F - ()
Cooling Degree Days 4    
Growing Degree Days 20 (Base 50)    
Moisture  
Dew Point 63 °F    
Average Humidity 74    
Maximum Humidity 100    
Minimum Humidity 54    
Precipitation  
Precipitation 0.00 in 0.15 in - ()
Sea Level Pressure  
Sea Level Pressure 30.05 in    
Wind  
Wind Speed 12 mph ()    
Max Wind Speed 21 mph    
Max Gust Speed -    
Visibility 7.0 miles    
Events Rain    
T = Trace of Precipitation, MM = Missing Value Source: Averaged Metar Reports

Daily Weather History Graph

Daily Weather History Graph

Search for Another Location

Airport or City:

Trip Planner

Search our weather history database for the weather conditions in past years. The results will help you decide how hot, cold, wet, or windy it might be!

Date:

Astronomy

Jan. 22, 2014 Rise Set
Actual Time 6:06 AM AEDT 8:06 PM AEDT
Civil Twilight 5:38 AM AEDT 8:34 PM AEDT
Nautical Twilight 5:04 AM AEDT 9:08 PM AEDT
Astronomical Twilight 4:27 AM AEDT 9:44 PM AEDT
Moon 11:13 PM AEDT 11:19 AM AEDT
Length of Visible Light 14h 56m
Length of Day
14h 00m
Waning Gibbous, 72% of the Moon is Illuminated
Jan 22
Waning Gibbous
Jan 24
Last Quarter
Jan 31
New
Feb 7
First Quarter
Feb 15
Full

Hourly Weather History & Observations

Time (AEDT) Temp. Dew Point Humidity Pressure Visibility Wind Dir Wind Speed Gust Speed Precip Events Conditions
12:00 AM 72 °F 66 °F 77% 29.89 in 16 mi SSE 9.2 mph - - Rain Light Rain Showers
12:00 AM 71.6 °F 66.2 °F 83% 29.89 in 6.2 mi SSE 9.2 mph - N/A   Mostly Cloudy
12:30 AM 71.6 °F 66.2 °F 83% 29.89 in 6.2 mi SSE 8.1 mph - N/A   Mostly Cloudy
1:00 AM 72 °F 67 °F 80% 29.90 in - SE 6.9 mph - -  
1:00 AM 71.6 °F 68.0 °F 88% 29.89 in 6.2 mi SE 6.9 mph - N/A   Mostly Cloudy
1:30 AM 71.6 °F 68.0 °F 88% 29.89 in 6.2 mi SSE 5.8 mph - N/A   Mostly Cloudy
2:00 AM 72 °F 67 °F 81% 29.91 in - SSE 4.6 mph - -  
2:00 AM 71.6 °F 68.0 °F 88% 29.89 in 6.2 mi SSE 4.6 mph - N/A   Mostly Cloudy
2:30 AM 71.6 °F 66.2 °F 83% 29.89 in 6.2 mi South 4.6 mph - N/A   Mostly Cloudy
3:00 AM 72 °F 68 °F 82% 29.91 in 9 mi South 5.8 mph - -   Mostly Cloudy
3:00 AM 71.6 °F 68.0 °F 88% 29.89 in 6.2 mi South 5.8 mph - N/A   Mostly Cloudy
3:30 AM 71.6 °F 68.0 °F 88% 29.89 in 6.2 mi South 9.2 mph - N/A Rain Light Rain Showers
4:00 AM 71 °F 68 °F 86% 29.93 in - South 15.0 mph - -  
4:00 AM 69.8 °F 68.0 °F 94% 29.92 in 6.2 mi South 15.0 mph - N/A Rain Light Rain Showers
4:10 AM 68.0 °F 68.0 °F 100% 29.92 in 3.7 mi SE 19.6 mph - N/A Rain Rain Showers
4:30 AM 68.0 °F 66.2 °F 94% 29.92 in 5.6 mi SE 17.3 mph - N/A Rain Light Rain Showers
5:00 AM 68 °F 65 °F 88% 29.95 in - East 11.5 mph - -  
5:00 AM 68.0 °F 66.2 °F 94% 29.95 in 6.2 mi East 11.5 mph - N/A   Mostly Cloudy
5:30 AM 68.0 °F 64.4 °F 88% 29.95 in 6.2 mi East 12.7 mph - N/A   Mostly Cloudy
6:00 AM 67 °F 65 °F 93% 29.98 in 4 mi East 10.4 mph - - Rain Light Rain Showers
6:00 AM 68.0 °F 66.2 °F 94% 29.98 in 3.7 mi East 10.4 mph - N/A Rain Light Rain Showers
6:30 AM 69.8 °F 66.2 °F 88% 29.98 in 4.3 mi SSE 16.1 mph - N/A Rain Light Rain Showers
7:00 AM 71 °F 64 °F 73% 30.01 in - SE 18.4 mph - -  
7:00 AM 71.6 °F 64.4 °F 78% 30.01 in 6.2 mi SE 18.4 mph - N/A   Light Drizzle
7:30 AM 69.8 °F 62.6 °F 78% 30.01 in 6.2 mi SSE 19.6 mph - N/A   Mostly Cloudy
8:00 AM 70 °F 63 °F 73% 30.04 in - SSE 19.6 mph - -  
8:00 AM 69.8 °F 62.6 °F 78% 30.04 in 6.2 mi SSE 19.6 mph - N/A   Mostly Cloudy
8:30 AM 69.8 °F 62.6 °F 78% 30.04 in 6.2 mi SSE 19.6 mph - N/A   Mostly Cloudy
9:00 AM 71 °F 62 °F 65% 30.06 in 16 mi SSE 19.6 mph - -   Mostly Cloudy
9:00 AM 71.6 °F 62.6 °F 73% 30.04 in 6.2 mi SSE 19.6 mph - N/A   Mostly Cloudy
9:30 AM 71.6 °F 60.8 °F 69% 30.06 in 6.2 mi SSE 18.4 mph - N/A   Mostly Cloudy
10:00 AM 71 °F 60 °F 60% 30.07 in - SSE 18.4 mph - -  
10:00 AM 71.6 °F 60.8 °F 69% 30.06 in 6.2 mi SSE 18.4 mph - N/A   Mostly Cloudy
10:30 AM 71.6 °F 60.8 °F 69% 30.06 in 6.2 mi SSE 18.4 mph - N/A   Mostly Cloudy
11:00 AM 70 °F 60 °F 64% 30.08 in - SSE 20.7 mph - -  
11:00 AM 69.8 °F 60.8 °F 73% 30.06 in 6.2 mi SSE 20.7 mph - N/A   Mostly Cloudy
11:30 AM 69.8 °F 59.0 °F 68% 30.06 in 6.2 mi South 19.6 mph - N/A   Mostly Cloudy
12:00 PM 71 °F 58 °F 56% 30.10 in 16 mi SSE 19.6 mph - -   Partly Cloudy
12:00 PM 71.6 °F 59.0 °F 64% 30.09 in 6.2 mi SSE 19.6 mph - N/A   Mostly Cloudy
12:30 PM 71.6 °F 59.0 °F 64% 30.09 in 6.2 mi South 19.6 mph - N/A   Mostly Cloudy
1:00 PM 72 °F 59 °F 54% 30.11 in - South 19.6 mph - -  
1:00 PM 71.6 °F 59.0 °F 64% 30.09 in 6.2 mi South 19.6 mph - N/A   Mostly Cloudy
1:30 PM 71.6 °F 60.8 °F 69% 30.09 in 6.2 mi South 18.4 mph - N/A   Mostly Cloudy
2:00 PM 72 °F 60 °F 56% 30.12 in - South 18.4 mph - -  
2:00 PM 71.6 °F 59.0 °F 64% 30.09 in 6.2 mi South 18.4 mph - N/A   Mostly Cloudy
2:30 PM 71.6 °F 57.2 °F 60% 30.09 in 6.2 mi SSE 17.3 mph - N/A   Mostly Cloudy
3:00 PM 71 °F 59 °F 58% 30.12 in 16 mi South 20.7 mph - -   Partly Cloudy
3:00 PM 71.6 °F 59.0 °F 64% 30.12 in 6.2 mi South 20.7 mph - N/A   Mostly Cloudy
3:30 PM 71.6 °F 60.8 °F 69% 30.12 in 6.2 mi South 17.3 mph - N/A   Mostly Cloudy
4:00 PM 71 °F 60 °F 61% 30.13 in - South 17.3 mph - -  
4:00 PM 71.6 °F 60.8 °F 69% 30.12 in 6.2 mi South 17.3 mph - N/A   Mostly Cloudy
4:30 PM 71.6 °F 60.8 °F 69% 30.12 in 6.2 mi South 18.4 mph - N/A   Mostly Cloudy
5:00 PM 71 °F 61 °F 63% 30.13 in - South 18.4 mph - -  
5:00 PM 71.6 °F 60.8 °F 69% 30.12 in 6.2 mi South 18.4 mph - N/A   Mostly Cloudy
5:30 PM 71.6 °F 60.8 °F 69% 30.12 in 6.2 mi South 19.6 mph - N/A   Mostly Cloudy
6:00 PM 71 °F 60 °F 61% 30.14 in 16 mi South 17.3 mph - -   Partly Cloudy
6:00 PM 71.6 °F 60.8 °F 69% 30.12 in 6.2 mi South 17.3 mph - N/A   Mostly Cloudy
6:30 PM 71.6 °F 60.8 °F 69% 30.12 in 6.2 mi South 18.4 mph - N/A   Mostly Cloudy
7:00 PM 71 °F 60 °F 61% 30.15 in - South 17.3 mph - -  
7:00 PM 71.6 °F 60.8 °F 69% 30.12 in 6.2 mi South 17.3 mph - N/A   Mostly Cloudy
7:30 PM 69.8 °F 60.8 °F 73% 30.15 in 6.2 mi South 17.3 mph - N/A   Mostly Cloudy
8:00 PM 70 °F 61 °F 65% 30.16 in - South 17.3 mph - -  
8:00 PM 69.8 °F 60.8 °F 73% 30.15 in 6.2 mi South 17.3 mph - N/A   Mostly Cloudy
8:30 PM 69.8 °F 60.8 °F 73% 30.15 in 6.2 mi South 12.7 mph - N/A   Mostly Cloudy
9:00 PM 71 °F 61 °F 63% 30.18 in 12 mi South 12.7 mph - -   Partly Cloudy
9:00 PM 69.8 °F 60.8 °F 73% 30.15 in 6.2 mi South 12.7 mph - N/A   Mostly Cloudy
9:30 PM 69.8 °F 60.8 °F 73% 30.18 in 6.2 mi SSE 12.7 mph - N/A   Mostly Cloudy
10:00 PM 69 °F 62 °F 72% 30.20 in - ESE 9.2 mph - -  
10:00 PM 68.0 °F 62.6 °F 83% 30.18 in 6.2 mi ESE 9.2 mph - N/A   Mostly Cloudy
10:30 PM 69.8 °F 62.6 °F 78% 30.18 in 6.2 mi ESE 5.8 mph - N/A   Mostly Cloudy
11:00 PM 69 °F 62 °F 71% 30.20 in - East 9.2 mph - -  
11:00 PM 69.8 °F 60.8 °F 73% 30.18 in 6.2 mi East 9.2 mph - N/A   Mostly Cloudy
11:30 PM 69.8 °F 62.6 °F 78% 30.18 in 6.2 mi ENE 10.4 mph - N/A   Mostly Cloudy